Weather History for Penn Yan, NY

Change the Weather History Date:

Tuesday, July 30, 2013

  Actual Average (KITH) Record (KITH)
Temperature  
Mean Temperature 64 °F -  
Max Temperature 75 °F 78 °F 96 °F (1949)
Min Temperature 55 °F 56 °F 42 °F (1965)
Degree Days  
Heating Degree Days 1    
Growing Degree Days 14 (Base 50)    
Moisture  
Dew Point 56 °F    
Average Humidity 74    
Maximum Humidity 93    
Minimum Humidity 55    
Precipitation  
Precipitation 0.00 in - - ()
Sea Level Pressure  
Sea Level Pressure 30.18 in    
Wind  
Wind Speed 4 mph (SW)    
Max Wind Speed 9 mph    
Max Gust Speed 16 mph    
Visibility 10 miles    
Events      
Averages and records for this station are not official NWS values.
T = Trace of Precipitation, MM = Missing Value Source: NWS Daily Summary

Daily Weather History Graph

Daily Weather History Graph

Search for Another Location

Airport:

Trip Planner

Search our weather history database for the weather conditions in past years. The results will help you decide how hot, cold, wet, or windy it might be!

Date:

Astronomy

Jul. 30, 2013 Rise Set
Actual Time 5:58 AM EDT 8:30 PM EDT
Civil Twilight 5:25 AM EDT 9:02 PM EDT
Nautical Twilight 4:45 AM EDT 9:42 PM EDT
Astronomical Twilight 4:00 AM EDT 10:27 PM EDT
Moon 12:16 AM EDT (7/30) 2:48 PM EDT (7/30)
Length of Visible Light 15h 36m
Length of Day
14h 32m
Last Quarter, 41% of the Moon is Illuminated
Jul 30
Last Quarter
Aug 6
New
Aug 14
First Quarter
Aug 20
Full
Aug 28
Last Quarter

Hourly Weather History & Observations

Time (EDT) Temp. Dew Point Humidity Pressure Visibility Wind Dir Wind Speed Gust Speed Precip Events Conditions
12:53 AM 60.1 °F 55.0 °F 83% 30.16 in 10.0 mi SSW 3.5 mph - N/A   Clear
1:53 AM 60.1 °F 55.0 °F 83% 30.16 in 10.0 mi South 4.6 mph - N/A   Clear
2:53 AM 57.0 °F 55.0 °F 93% 30.16 in 10.0 mi SW 3.5 mph - N/A   Clear
3:53 AM 57.9 °F 55.0 °F 90% 30.17 in 10.0 mi SSW 3.5 mph - N/A   Clear
4:53 AM 57.9 °F 55.0 °F 90% 30.18 in 10.0 mi South 3.5 mph - N/A   Scattered Clouds
5:53 AM 55.9 °F 54.0 °F 93% 30.18 in 9.0 mi SW 3.5 mph - N/A   Clear
6:53 AM 60.1 °F 55.9 °F 86% 30.19 in 10.0 mi Variable 3.5 mph - N/A   Overcast
7:53 AM 62.1 °F 55.9 °F 80% 30.20 in 10.0 mi SSW 4.6 mph - N/A   Overcast
8:53 AM 64.0 °F 55.9 °F 75% 30.22 in 10.0 mi SW 4.6 mph - N/A   Overcast
9:53 AM 66.0 °F 54.0 °F 65% 30.22 in 10.0 mi WSW 6.9 mph - N/A   Overcast
10:53 AM 69.1 °F 55.0 °F 61% 30.21 in 10.0 mi Variable 5.8 mph - N/A   Partly Cloudy
11:53 AM 71.1 °F 55.9 °F 59% 30.20 in 10.0 mi Variable 5.8 mph - N/A   Partly Cloudy
12:53 PM 70.0 °F 55.0 °F 59% 30.19 in 10.0 mi NW 9.2 mph 16.1 mph N/A   Mostly Cloudy
1:53 PM 73.0 °F 55.9 °F 55% 30.17 in 10.0 mi Variable 6.9 mph - N/A   Mostly Cloudy
2:53 PM 72.0 °F 55.9 °F 57% 30.17 in 10.0 mi Variable 4.6 mph - N/A   Mostly Cloudy
3:53 PM 73.9 °F 57.0 °F 55% 30.15 in 10.0 mi West 6.9 mph - N/A   Mostly Cloudy
4:53 PM 73.9 °F 57.9 °F 57% 30.16 in 10.0 mi Variable 5.8 mph - N/A   Overcast
5:53 PM 73.0 °F 55.9 °F 55% 30.16 in 10.0 mi West 4.6 mph - N/A   Mostly Cloudy
6:53 PM 73.0 °F 57.0 °F 57% 30.16 in 10.0 mi Variable 3.5 mph - N/A   Partly Cloudy
7:53 PM 68.0 °F 57.0 °F 68% 30.17 in 10.0 mi Calm Calm - N/A   Clear
8:53 PM 62.1 °F 57.0 °F 84% 30.16 in 10.0 mi Calm Calm - N/A   Clear
9:53 PM 59.0 °F 55.9 °F 90% 30.17 in 10.0 mi South 3.5 mph - N/A   Clear
10:53 PM 60.1 °F 55.9 °F 86% 30.18 in 10.0 mi SW 3.5 mph - N/A   Clear
11:53 PM 60.1 °F 57.9 °F 93% 30.17 in 9.0 mi Calm Calm - N/A   Clear